Content
SEND FEEDBACK

Daily
Averages
Monthly
Summary
Mexico

CANCUN, QUINTANA ROO


Home > North America > Mexico > Quintana Roo
Elevation: 9 meters     Latitude: 21 09N     Longitude: 086 49W

WEATHER
 
SELECT A DAY
Number of Records: 163,677;   Date Range: 1/1/95 - 7/23/14
 
SHARE

PRINT THIS DATA

[ ← Previous Day ]
WEATHER ALMANAC - 10 FEBRUARY, 2013
[ Next Day → ]
[ °F ]   °C
Weather ElementAverageHighLow
Temperature26 °C29 °C (11:51 am)23 °C (2:41 am)
Dewpoint21 °C22 °C (7:44 pm)20 °C (11:46 pm)
Humidity74.3 %88 % (2:41 am)62 % (11:51 am)
Barometer1017.6 hPa1019.3 hPa (8:40 am)1016.3 hPa (3:42 pm)
Wind Speed20 km/h33.3 km/h (11:51 am)
Weather ElementAverage
Visibility11.7 km
Wind DirectionESE (127.4 °)

Weather ElementTotal
Precipitation---
Cooling Degree Days7.7 (Base 18.3)
Growing Degree Days16 (Base 10)
Averaged from 23 records on 10 February, 2013
WEATHER CONDITIONS BREAKOUT
WIND DIRECTION BREAKOUT
WEATHER BY HOUR - 10 FEBRUARY, 2013
[ °F ]   °C
Local TimeTemperatureDewpointHumidityBarometerVisibilityWind DirectionWind SpeedGust SpeedPrecipitationEventsConditions
1:51 AM24 °C21 °C83 %1017.3 hPa11.3 kmESE (110°)9.3 km/hScattered Clouds
2:41 AM23 °C21 °C88 %1016.6 hPa11.3 kmEast (90°)7.4 km/hScattered Clouds
3:40 AM24 °C21 °C83 %1016.9 hPa11.3 kmESE (110°)7.4 km/hScattered Clouds
4:54 AM24 °C21 °C83 %1017.3 hPa11.3 kmESE (120°)7.4 km/hScattered Clouds
5:40 AM24 °C21 °C83 %1017.3 hPa11.3 kmESE (110°)11.1 km/hScattered Clouds
6:45 AM24 °C21 °C83 %1017.9 hPa11.3 kmESE (110°)13 km/hScattered Clouds
7:45 AM26 °C21 °C74 %1018.3 hPa11.3 kmESE (120°)16.7 km/hScattered Clouds
8:40 AM27 °C21 °C70 %1019.3 hPa12.9 kmESE (120°)27.8 km/hMostly Cloudy
9:45 AM28 °C21 °C66 %1019.3 hPa12.9 kmSE (130°)27.8 km/hMostly Cloudy
10:48 AM28 °C21 °C66 %1019.3 hPa12.9 kmESE (120°)27.8 km/hMostly Cloudy
11:51 AM29 °C21 °C62 %1018.6 hPa12.9 kmSSE (150°)33.3 km/hMostly Cloudy
12:40 PM28 °C21 °C66 %1017.6 hPa12.9 kmSSE (150°)33.3 km/hMostly Cloudy
1:44 PM28 °C21 °C66 %1016.9 hPa12.9 kmSSE (150°)25.9 km/hMostly Cloudy
2:44 PM27 °C21 °C70 %1016.9 hPa11.3 kmSE (130°)29.6 km/hMostly Cloudy
3:42 PM28 °C21 °C66 %1016.3 hPa11.3 kmSSE (150°)27.8 km/hMostly Cloudy
4:42 PM27 °C21 °C70 %1016.3 hPa11.3 kmSE (140°)20.4 km/hScattered Clouds
5:46 PM26 °C21 °C74 %1016.3 hPa11.3 kmSE (140°)18.5 km/hScattered Clouds
6:44 PM26 °C21 °C74 %1016.6 hPa11.3 kmSE (140°)16.7 km/hScattered Clouds
7:44 PM26 °C22 °C78 %1017.3 hPa11.3 kmSE (130°)25.9 km/hScattered Clouds
8:45 PM26 °C21 °C74 %1017.3 hPa11.3 kmESE (120°)22.2 km/hPartly Cloudy
9:48 PM25 °C21 °C78 %1017.9 hPa11.3 kmSE (130°)20.4 km/hPartly Cloudy
10:47 PM25 °C21 °C78 %1017.9 hPa11.3 kmSE (130°)16.7 km/hClear
11:46 PM25 °C20 °C74 %1016.9 hPa11.3 kmSE (130°)13 km/hClear
Hourly data recorded from MMUN, located 0 kilometers away from Cancun, Quintana Roo







STORIES FROM OUR PARTNERS